Overview Statistics Trail Chart Weather Telemetry Raw packets
 

This is the latest recevied weather packets stored in our database for station/object N3TUQ-2. If no packets are shown the sender has not sent any weather packets the latest 10 day(s).

<< 2 3 4 5 6 7 8 >>
Time Temp. Humidity Pressure Rain* Wind** Luminosity Snow
1788531533 22.78° C 85% 1014.2 hPa 0 mm - - -
1788530753 21.67° C 87% 1014.6 hPa 0 mm - - -
1788529972 21.67° C 89% 1014.6 hPa 0 mm - - -
1788529192 21.11° C 89% 1014.5 hPa 0 mm - - -
1788528412 21.11° C 90% 1014.3 hPa 0 mm - - -
1788527632 20.56° C 90% 1014.2 hPa 0 mm - - -
1788526073 20° C 97% 1014.3 hPa 0 mm - - -
1788525292 18.89° C 98% 1014.5 hPa 0 mm - - -
1788524512 18.89° C 99% 1014.4 hPa 0 mm - - -
1788522952 17.78° C 99% 1014.3 hPa 0 mm - - -
1788522172 17.78° C 98% 1014.4 hPa 0 mm - - -
1788521435 17.78° C 98% 1014.3 hPa 0 mm - - -
1788521393 17.78° C 98% 1014.3 hPa 0 mm - - -
1788520613 17.22° C 98% 1014.2 hPa 0 mm - - -
1788519052 17.22° C 98% 1014.1 hPa 0 mm - - -
1788518415 17.78° C 98% 1014 hPa 0 mm - - -
1788518272 17.78° C 98% 1014 hPa 0 mm - - -
1788517492 17.78° C 98% 1014 hPa 0 mm - - -
1788516712 17.78° C 98% 1014 hPa 0 mm - - -
1788515933 17.78° C 97% 1013.9 hPa 0 mm - - -
1788515152 18.33° C 96% 1013.8 hPa 0 mm - - -
1788514372 18.33° C 95% 1013.8 hPa 0 mm - - -
1788513592 18.89° C 96% 1013.9 hPa 0 mm - - -
1788512812 19.44° C 95% 1013.9 hPa 0 mm - - -
1788512032 19.44° C 95% 1013.7 hPa 0 mm - - -

* Rain latest hour (hover to see other rain measurements)
** Current wind speed in m/s (hover to see current wind gust speed)